Year,Month,Day,Hour,Minute,Value (Times are PST for temperature in C)
2014,03,22,10,22,4.30
2014,03,22,10,23,4.30
2014,03,22,10,24,4.40
2014,03,22,10,25,4.40
2014,03,22,10,26,4.40
2014,03,22,10,27,4.50
2014,03,22,10,28,4.50
2014,03,22,10,29,4.50
2014,03,22,10,30,4.60
2014,03,22,10,31,4.60
2014,03,22,10,32,4.60
2014,03,22,10,33,4.70
2014,03,22,10,34,4.70
2014,03,22,10,35,4.70
2014,03,22,10,36,4.80
2014,03,22,10,37,4.80
2014,03,22,10,38,4.80
2014,03,22,10,39,4.90
2014,03,22,10,40,4.90
2014,03,22,10,41,5.00
2014,03,22,10,42,5.00
2014,03,22,10,43,5.10
2014,03,22,10,44,5.10
2014,03,22,10,45,5.10
2014,03,22,10,46,5.10
2014,03,22,10,47,5.20
2014,03,22,10,48,5.20
2014,03,22,10,49,5.20
2014,03,22,10,50,5.20
2014,03,22,10,51,5.20
2014,03,22,10,52,5.20
2014,03,22,10,53,5.20
2014,03,22,10,54,5.20
2014,03,22,10,55,5.20
2014,03,22,10,56,5.20
2014,03,22,10,57,5.20
2014,03,22,10,58,5.20
2014,03,22,10,59,5.20
2014,03,22,11,00,5.20
2014,03,22,11,01,5.20
2014,03,22,11,02,5.20
2014,03,22,11,03,5.20
2014,03,22,11,04,5.20
2014,03,22,11,05,5.20
2014,03,22,11,06,5.20
2014,03,22,11,07,5.20
2014,03,22,11,08,5.20
2014,03,22,11,09,5.20
2014,03,22,11,10,5.20
2014,03,22,11,11,5.30
2014,03,22,11,12,5.30
2014,03,22,11,13,5.30
2014,03,22,11,14,5.30
2014,03,22,11,15,5.30
2014,03,22,11,16,5.30
2014,03,22,11,17,5.30
2014,03,22,11,18,5.30
2014,03,22,11,19,5.30
2014,03,22,11,20,5.30
2014,03,22,11,21,5.30
2014,03,22,11,22,5.30
2014,03,22,11,23,5.40
2014,03,22,11,24,5.40
2014,03,22,11,25,5.50
2014,03,22,11,26,5.50
2014,03,22,11,27,5.60
2014,03,22,11,28,5.70
2014,03,22,11,29,5.70
2014,03,22,11,30,5.80
2014,03,22,11,31,5.80
2014,03,22,11,32,5.80
2014,03,22,11,33,5.80
2014,03,22,11,34,5.70
2014,03,22,11,35,5.70
2014,03,22,11,36,5.80
2014,03,22,11,37,5.80
2014,03,22,11,38,5.80
2014,03,22,11,39,5.80
2014,03,22,11,40,5.80
2014,03,22,11,41,5.80
2014,03,22,11,42,5.80
2014,03,22,11,43,5.80
2014,03,22,11,44,5.80
2014,03,22,11,45,5.90
2014,03,22,11,46,5.90
2014,03,22,11,47,5.90
2014,03,22,11,48,5.90
2014,03,22,11,49,5.90
2014,03,22,11,50,5.90
2014,03,22,11,51,5.90
2014,03,22,11,52,5.90
2014,03,22,11,53,5.90
2014,03,22,11,54,5.90
2014,03,22,11,55,5.80
2014,03,22,11,56,5.80
2014,03,22,11,57,5.80
2014,03,22,11,58,5.90
2014,03,22,11,59,5.90
2014,03,22,12,00,5.90
2014,03,22,12,01,5.90
2014,03,22,12,02,5.80
2014,03,22,12,03,5.80
2014,03,22,12,04,5.90
2014,03,22,12,05,5.90
2014,03,22,12,06,5.80
2014,03,22,12,07,5.80
2014,03,22,12,08,5.80
2014,03,22,12,09,5.80
2014,03,22,12,10,5.70
2014,03,22,12,11,5.80
2014,03,22,12,12,5.80
2014,03,22,12,13,5.70
2014,03,22,12,14,5.70
2014,03,22,12,15,5.70
2014,03,22,12,16,5.70
2014,03,22,12,17,5.70
2014,03,22,12,18,5.70
2014,03,22,12,19,5.70
2014,03,22,12,20,5.70
2014,03,22,12,21,5.70
2014,03,22,12,22,5.60
2014,03,22,12,23,5.60
2014,03,22,12,24,5.50
2014,03,22,12,25,5.40
2014,03,22,12,26,5.40
2014,03,22,12,27,5.40
2014,03,22,12,28,5.40
2014,03,22,12,29,5.50
2014,03,22,12,30,5.50
2014,03,22,12,31,5.50
2014,03,22,12,32,5.50
2014,03,22,12,33,5.50
2014,03,22,12,34,5.50
2014,03,22,12,35,5.50
2014,03,22,12,36,5.50
2014,03,22,12,37,5.60
2014,03,22,12,38,5.50
2014,03,22,12,39,5.50
2014,03,22,12,40,5.40
2014,03,22,12,41,5.40
2014,03,22,12,42,5.40
2014,03,22,12,43,5.30
2014,03,22,12,44,5.30
2014,03,22,12,45,5.40
2014,03,22,12,46,5.30
2014,03,22,12,47,5.30
2014,03,22,12,48,5.30
2014,03,22,12,49,5.30
2014,03,22,12,50,5.30
2014,03,22,12,51,5.20
2014,03,22,12,52,5.30
2014,03,22,12,53,5.30
2014,03,22,12,54,5.30
2014,03,22,12,55,5.30
2014,03,22,12,56,5.20
2014,03,22,12,57,5.20
2014,03,22,12,58,5.20
2014,03,22,12,59,5.20
2014,03,22,13,00,5.20
2014,03,22,13,01,5.20
2014,03,22,13,02,5.20
2014,03,22,13,03,5.10
2014,03,22,13,04,5.10
2014,03,22,13,05,5.10
2014,03,22,13,06,5.10
2014,03,22,13,07,5.10
2014,03,22,13,08,5.20
2014,03,22,13,09,5.20
2014,03,22,13,10,5.30
2014,03,22,13,11,5.30
2014,03,22,13,12,5.20
2014,03,22,13,13,5.20
2014,03,22,13,14,5.10
2014,03,22,13,15,5.10
2014,03,22,13,16,5.10
2014,03,22,13,17,5.10
2014,03,22,13,18,5.20
2014,03,22,13,19,5.20
2014,03,22,13,20,5.20
2014,03,22,13,21,5.20
2014,03,22,13,22,5.20
2014,03,22,13,23,5.30
2014,03,22,13,24,5.20
2014,03,22,13,25,5.20
2014,03,22,13,26,5.20
2014,03,22,13,27,5.20
2014,03,22,13,28,5.20
2014,03,22,13,29,5.20
2014,03,22,13,30,5.20
2014,03,22,13,31,5.20
2014,03,22,13,32,5.20
2014,03,22,13,33,5.30
2014,03,22,13,34,5.30
2014,03,22,13,35,5.30
2014,03,22,13,36,5.30
2014,03,22,13,37,5.40
2014,03,22,13,38,5.30
2014,03,22,13,39,5.30
2014,03,22,13,40,5.30
2014,03,22,13,41,5.30
2014,03,22,13,42,5.30
2014,03,22,13,43,5.30
2014,03,22,13,44,5.30
2014,03,22,13,45,5.30
2014,03,22,13,46,5.30
2014,03,22,13,47,5.40
2014,03,22,13,48,5.40
2014,03,22,13,49,5.40
2014,03,22,13,50,5.40
2014,03,22,13,51,5.40
2014,03,22,13,52,5.40
2014,03,22,13,53,5.40
2014,03,22,13,54,5.40
2014,03,22,13,55,5.50
2014,03,22,13,56,5.60
2014,03,22,13,57,5.60
2014,03,22,13,58,5.60
2014,03,22,13,59,5.60
2014,03,22,14,00,5.70
2014,03,22,14,01,5.80
2014,03,22,14,02,5.80
2014,03,22,14,03,5.70
2014,03,22,14,04,5.70
2014,03,22,14,05,5.60
2014,03,22,14,06,5.70
2014,03,22,14,07,5.70
2014,03,22,14,08,5.70
2014,03,22,14,09,5.70
2014,03,22,14,10,5.70
2014,03,22,14,11,5.70
2014,03,22,14,12,5.80
2014,03,22,14,13,5.80
2014,03,22,14,14,5.80
2014,03,22,14,15,5.80
2014,03,22,14,16,5.80
2014,03,22,14,17,5.80
2014,03,22,14,18,5.80
2014,03,22,14,19,5.80
2014,03,22,14,20,5.80
2014,03,22,14,21,5.70
2014,03,22,14,22,5.70
2014,03,22,14,23,5.70
2014,03,22,14,24,5.60
2014,03,22,14,25,5.60
2014,03,22,14,26,5.60
2014,03,22,14,27,5.60
2014,03,22,14,28,5.60
2014,03,22,14,29,5.70
2014,03,22,14,30,5.70
2014,03,22,14,31,5.70
2014,03,22,14,32,5.80
2014,03,22,14,33,5.80
2014,03,22,14,34,5.70
2014,03,22,14,35,5.70
2014,03,22,14,36,5.70
2014,03,22,14,37,5.70
2014,03,22,14,38,5.70
2014,03,22,14,39,5.70
2014,03,22,14,40,5.70
2014,03,22,14,41,5.70
2014,03,22,14,42,5.80
2014,03,22,14,43,5.70
2014,03,22,14,44,5.80
2014,03,22,14,45,5.80
2014,03,22,14,46,5.70
2014,03,22,14,47,5.70
2014,03,22,14,48,5.70
2014,03,22,14,49,5.70
2014,03,22,14,50,5.70
2014,03,22,14,51,5.70
2014,03,22,14,52,5.60
2014,03,22,14,53,5.60
2014,03,22,14,54,5.50
2014,03,22,14,55,5.50
2014,03,22,14,56,5.50
2014,03,22,14,57,5.50
2014,03,22,14,58,5.60
2014,03,22,14,59,5.70
2014,03,22,15,00,5.70
2014,03,22,15,01,5.70
2014,03,22,15,02,5.70
2014,03,22,15,03,5.70
2014,03,22,15,04,5.70
2014,03,22,15,05,5.70
2014,03,22,15,06,5.70
2014,03,22,15,07,5.70
2014,03,22,15,08,5.70
2014,03,22,15,09,5.70
2014,03,22,15,10,5.70
2014,03,22,15,11,5.70
2014,03,22,15,12,5.70
2014,03,22,15,13,5.70
2014,03,22,15,14,5.80
2014,03,22,15,15,5.80
2014,03,22,15,16,5.80
2014,03,22,15,17,5.80
2014,03,22,15,18,5.80
2014,03,22,15,19,5.80
2014,03,22,15,20,5.80
2014,03,22,15,21,5.90
2014,03,22,15,22,5.90
2014,03,22,15,23,5.90
2014,03,22,15,24,6.00
2014,03,22,15,25,6.00
2014,03,22,15,26,6.10
2014,03,22,15,27,6.10
2014,03,22,15,28,6.10
2014,03,22,15,29,6.00
2014,03,22,15,30,6.10
2014,03,22,15,31,6.10
2014,03,22,15,32,6.10
2014,03,22,15,33,6.10
2014,03,22,15,34,6.10
2014,03,22,15,35,6.10
2014,03,22,15,36,6.10
2014,03,22,15,37,6.10
2014,03,22,15,38,6.00
2014,03,22,15,39,6.00
2014,03,22,15,40,6.00
2014,03,22,15,41,6.00
2014,03,22,15,42,6.00
2014,03,22,15,43,6.00
2014,03,22,15,44,6.00
2014,03,22,15,45,6.10
2014,03,22,15,46,6.10
2014,03,22,15,47,6.10
2014,03,22,15,48,6.10
2014,03,22,15,49,6.10
2014,03,22,15,50,6.10
2014,03,22,15,51,6.00
2014,03,22,15,52,6.00
2014,03,22,15,53,6.00
2014,03,22,15,54,6.00
2014,03,22,15,55,6.10
2014,03,22,15,56,6.10
2014,03,22,15,57,6.10
2014,03,22,15,58,6.10
2014,03,22,15,59,6.10
2014,03,22,16,00,6.10
2014,03,22,16,01,6.10
2014,03,22,16,02,6.10
2014,03,22,16,03,6.10
2014,03,22,16,04,6.20
2014,03,22,16,05,6.20
2014,03,22,16,06,6.10
2014,03,22,16,07,6.10
2014,03,22,16,08,6.10
2014,03,22,16,09,6.10
2014,03,22,16,10,6.10
2014,03,22,16,11,6.10
2014,03,22,16,12,6.10
2014,03,22,16,13,6.10
2014,03,22,16,14,6.10
2014,03,22,16,15,6.10
2014,03,22,16,16,6.10
2014,03,22,16,17,6.10
2014,03,22,16,18,6.10
2014,03,22,16,19,6.00
2014,03,22,16,20,6.10
2014,03,22,16,21,6.10
2014,03,22,16,22,6.10
2014,03,22,16,23,6.10
2014,03,22,16,24,6.10
2014,03,22,16,25,6.10
2014,03,22,16,26,6.00
2014,03,22,16,27,5.90
2014,03,22,16,28,6.00
2014,03,22,16,29,6.00
2014,03,22,16,30,6.00
2014,03,22,16,31,6.10
2014,03,22,16,32,6.10
2014,03,22,16,33,6.00
2014,03,22,16,34,6.00
2014,03,22,16,35,5.90
2014,03,22,16,36,5.90
2014,03,22,16,37,5.90
2014,03,22,16,38,6.00
2014,03,22,16,39,6.00
2014,03,22,16,40,6.10
2014,03,22,16,41,6.00
2014,03,22,16,42,6.00
2014,03,22,16,43,6.00
2014,03,22,16,44,6.00
2014,03,22,16,45,6.00
2014,03,22,16,46,6.00
2014,03,22,16,47,6.00
2014,03,22,16,48,5.90
2014,03,22,16,49,5.90
2014,03,22,16,50,5.90
2014,03,22,16,51,5.90
2014,03,22,16,52,5.90
2014,03,22,16,53,6.00
2014,03,22,16,54,6.00
2014,03,22,16,55,6.00
2014,03,22,16,56,5.90
2014,03,22,16,57,6.00
2014,03,22,16,58,6.00
2014,03,22,16,59,6.00
2014,03,22,17,00,6.00
2014,03,22,17,01,6.00
2014,03,22,17,02,6.00
2014,03,22,17,03,6.00
2014,03,22,17,04,6.00
2014,03,22,17,05,6.00
2014,03,22,17,06,5.90
2014,03,22,17,07,5.90
2014,03,22,17,08,5.90
2014,03,22,17,09,5.90
2014,03,22,17,10,5.90
2014,03,22,17,11,5.90
2014,03,22,17,12,5.90
2014,03,22,17,13,5.90
2014,03,22,17,14,5.90
2014,03,22,17,15,5.90
2014,03,22,17,16,5.90
2014,03,22,17,17,5.90
2014,03,22,17,18,5.90
2014,03,22,17,19,5.90
